Flag for Colombia Weather past 2 weeks in Cali, Colombia

Now
68 °F

Passing clouds.


Feels Like: 68 °F
Forecast: 70 / 81 °F
Wind: No wind

Location: Cali / Alfonso Bonillaaragon

Current Time: Jul 30, 2015 at 7:12:07 AM

Latest Report: Jul 30, 2015 at 6:00 AM


Visibility: N/A

Pressure: 29.97 "Hg (26.81 "Hg at 955m altitude)

Humidity: 94%

Dew point: 66 °F

Location of CaliLocation

Historic Weather in Cali — Graph

°F

Cali temperature yesterday

Maximum temperature yesterday: 88 °F (at 3:00 PM)
Minimum temperature yesterday: 68 °F (at 3:00 AM)
Average temperature yesterday: 76 °F

Past Weeks' High & Low Weather Summary

 TemperatureHumidityPressure
High93 °F (Jul 25, 3:00 PM)100% (Jul 20, 6:00 AM)30.20 "Hg (Jul 20, 6:00 AM)
Low50 °F (Jul 21, 5:00 AM)26% (Jul 25, 5:00 PM)29.80 "Hg (Jul 25, 4:00 PM)
Average75 °F72%29.97 "Hg
* Reported Jul 15 6:00 AM — Jul 30 6:00 AM, Cali, Weather by CustomWeather, © 2015

Note: Actual official high and low records may vary slightly from our data, if they occured in-between our weather recording intervals... More about our weather records

Advertising

Cali weather history for previous 24 hours

 ConditionsComfort  
Time TempWeatherWind HumidityBarometerVisibility
6:00 AM
Thu, Jul 30
68 °FPassing clouds.No wind94%29.97 "HgN/A
5:00 AM68 °FPassing clouds.2 mph94%29.98 "HgN/A
4:00 AM68 °FPartly cloudy.No wind94%29.97 "HgN/A
3:00 AM70 °FPassing clouds.No wind88%29.97 "HgN/A
2:00 AM70 °FPassing clouds.No wind88%29.97 "HgN/A
1:00 AM70 °FPassing clouds.2 mph88%29.99 "HgN/A
12:00 AM72 °FPassing clouds.7 mph78%30.00 "HgN/A
11:00 PM
Wed, Jul 29
73 °FPassing clouds.9 mph78%30.00 "HgN/A
10:00 PM73 °FPassing clouds.10 mph74%29.99 "HgN/A
9:00 PM72 °FClear.9 mph78%29.96 "Hg10 mi
8:00 PM73 °FClear.8 mph78%29.93 "Hg10 mi
7:00 PM77 °FPassing clouds.8 mph69%29.91 "HgN/A
6:00 PM81 °FPartly sunny.9 mph58%29.88 "HgN/A
5:00 PM86 °FScattered clouds.7 mph49%29.87 "HgN/A
4:00 PM86 °FScattered clouds.5 mph49%29.86 "HgN/A
3:00 PM88 °FScattered clouds.6 mph46%29.88 "HgN/A
2:00 PM86 °FBroken clouds.6 mph52%29.91 "HgN/A
1:00 PM84 °FBroken clouds.3 mph55%29.95 "HgN/A
12:00 PM82 °FBroken clouds.3 mph58%29.98 "HgN/A
11:00 AM81 °FBroken clouds.5 mph58%30.00 "HgN/A
10:00 AM75 °FPartly sunny.5 mph74%30.02 "HgN/A
9:00 AM73 °FPartly sunny.7 mph78%30.00 "HgN/A
8:00 AM72 °FPartly sunny.5 mph83%30.00 "HgN/A
7:00 AM68 °FPartly sunny.5 mph94%29.99 "HgN/A
Weather by CustomWeather, © 2015

See weather overviewHow to use our weather pages